Date String (YYYY-MM-DD hh:mm:ss) UTC,Instrument flags,absolute air pressure of the measurement (hPa),sample flow rate (lpm),inlet stack bypass flow (lpm),air temperature of the measurement (°C),ambient temperature measured by the external sensor (°C),aerosol sample conditioner tube jacket temperature (°C),OPC LED temperature (°C),internal box temperature (°C),relative humidity of the measurement (%),span deviation,mass concentration of particles derived from Lorenz-Mie calculation of OPC scattering (μg/m³),mass concentration of particles derived from Lorenz-Mie calculation of OPC scattering (μg/m³),mass concentration of particles derived from Lorenz-Mie calculation of OPC scattering (μg/m³)
DateTimeUTC,F1_M11,P_M11,Q1_M11,Q2_M11,T1_M11,T2_M11,T3_M11,T4_M11,T5_M11,U1_M11,ZSPAN_M11,X0_M11,X2_M11,X1_M11
2023-06-21 11:00:00,SystemResetWarning,0830.9,5.00,000.00,030.1,025.8,000.0,038.8,031.2,15.8,0000.0,0011.32,0004.50,0003.58
2023-06-21 11:01:00,SystemResetWarning,0830.9,4.99,000.00,030.1,026.2,000.0,038.8,031.2,16.1,0000.0,0011.23,0004.54,0003.59
2023-06-21 11:02:00,SystemResetWarning,0830.9,4.99,000.00,030.0,026.6,000.0,038.8,031.3,16.4,0000.0,0012.04,0004.54,0003.62
2023-06-21 11:03:00,SystemResetWarning,0830.9,5.01,000.00,030.0,026.9,000.0,038.8,031.3,16.4,0000.0,0012.26,0004.53,0003.62
2023-06-21 11:04:00,SystemResetWarning,0830.9,5.01,000.00,030.0,027.2,000.0,038.7,031.3,16.4,0000.0,0011.74,0004.57,0003.62
2023-06-21 11:05:00,SystemResetWarning,0830.9,5.00,000.00,030.0,027.4,000.0,038.7,031.3,16.4,0000.0,0011.63,0004.53,0003.62
2023-06-21 11:06:00,SystemResetWarning,0830.9,4.98,000.00,030.0,027.6,000.0,038.7,031.3,16.3,0000.0,0012.14,0004.50,0003.61
2023-06-21 11:07:00,SystemResetWarning,0830.9,5.00,000.00,030.0,027.7,000.0,038.7,031.3,16.3,0000.0,0012.33,0004.48,0003.60
2023-06-21 11:08:00,SystemResetWarning,0830.9,5.01,000.00,030.0,027.8,000.0,038.7,031.3,16.2,0000.0,0012.53,0004.41,0003.59
2023-06-21 11:09:00,SystemResetWarning,0830.9,5.01,000.00,030.0,027.9,000.0,038.6,031.4,16.1,0000.0,0012.57,0004.38,0003.58
2023-06-21 11:10:00,SystemResetWarning,0830.9,5.01,000.00,030.0,028.0,000.0,038.6,031.4,16.1,0000.0,0012.81,0004.40,0003.58
2023-06-21 11:11:00,SystemResetWarning,0830.9,4.99,000.00,030.0,028.0,000.0,038.6,031.3,16.1,0000.0,0012.25,0004.38,0003.57
2023-06-21 11:12:00,SystemResetWarning,0830.9,5.00,000.00,030.0,028.1,000.0,038.6,031.4,16.0,0000.0,0012.82,0004.37,0003.57
2023-06-21 11:13:00,SystemResetWarning,0830.9,5.00,000.00,030.0,028.1,000.0,038.6,031.4,15.8,0000.0,0012.23,0004.38,0003.56
2023-06-21 11:14:00,SystemResetWarning,0830.9,5.00,000.00,030.0,028.2,000.0,038.6,031.4,15.9,0000.0,0012.07,0004.43,0003.55
2023-06-21 11:15:00,SystemResetWarning,0830.9,5.00,000.00,030.0,028.2,000.0,038.6,031.4,16.0,0000.0,0012.72,0004.40,0003.55
2023-06-21 11:16:00,SystemResetWarning,0830.9,5.00,000.00,030.0,028.2,000.0,038.6,031.4,15.9,0000.0,0012.57,0004.42,0003.54
2023-06-21 11:17:00,SystemResetWarning,0830.9,4.99,000.00,030.0,028.3,000.0,038.6,031.5,15.9,0000.0,0011.91,0004.44,0003.52
2023-06-21 11:18:00,SystemResetWarning,0830.9,5.01,000.00,030.0,028.3,000.0,038.6,031.5,15.9,0000.0,0012.13,0004.46,0003.51
2023-06-21 11:19:00,SystemResetWarning,0830.9,5.00,000.00,030.0,028.3,000.0,038.6,031.5,15.8,0000.0,0011.88,0004.47,0003.51
2023-06-21 11:20:00,SystemResetWarning,0830.9,5.00,000.00,030.1,028.3,000.0,038.6,031.5,15.9,0000.0,0012.07,0004.47,0003.50
2023-06-21 11:21:00,SystemResetWarning,0830.9,5.00,000.00,030.1,028.3,000.0,038.6,031.5,15.7,0000.0,0012.82,0004.45,0003.49
2023-06-21 11:22:00,SystemResetWarning,0830.9,5.00,000.00,030.1,028.3,000.0,038.6,031.5,15.6,0000.0,0013.15,0004.45,0003.49
2023-06-21 11:23:00,SystemResetWarning,0830.9,5.00,000.00,030.1,028.3,000.0,038.6,031.5,15.6,0000.0,0012.23,0004.44,0003.48
2023-06-21 11:24:00,SystemResetWarning,0830.9,4.99,000.00,030.1,028.4,000.0,038.6,031.5,15.6,0000.0,0013.66,0004.47,0003.49
2023-06-21 11:25:00,SystemResetWarning,0830.9,5.00,000.00,030.1,028.4,000.0,038.6,031.5,15.5,0000.0,0014.21,0004.41,0003.48
2023-06-21 11:26:00,SystemResetWarning,0830.9,5.00,000.00,030.1,028.4,000.0,038.7,031.5,15.5,0000.0,0013.61,0004.40,0003.48
2023-06-21 11:27:00,SystemResetWarning,0830.9,5.00,000.00,030.1,028.4,000.0,038.7,031.5,15.4,0000.0,0014.16,0004.38,0003.48
2023-06-21 11:28:00,SystemResetWarning,0830.9,5.00,000.00,030.1,028.4,000.0,038.7,031.5,15.3,0000.0,0015.25,0004.38,0003.48
2023-06-21 11:29:00,SystemResetWarning,0830.9,5.00,000.00,030.1,028.4,000.0,038.7,031.6,15.3,0000.0,0015.54,0004.36,0003.47
2023-06-21 11:30:00,SystemResetWarning,0830.9,5.00,000.00,030.1,028.4,000.0,038.7,031.6,15.3,0000.0,0016.11,0004.34,0003.47
2023-06-21 11:31:00,SystemResetWarning,0830.9,5.00,000.00,030.1,028.4,000.0,038.7,031.6,15.2,0000.0,0016.34,0004.35,0003.47
2023-06-21 11:32:00,SystemResetWarning,0830.9,5.00,000.00,030.2,028.4,000.0,038.7,031.6,15.1,0000.0,0016.12,0004.35,0003.48
2023-06-21 11:33:00,SystemResetWarning,0830.9,5.00,000.00,030.2,028.5,000.0,038.7,031.6,15.1,0000.0,0015.34,0004.34,0003.47
2023-06-21 11:34:00,SystemResetWarning,0830.9,5.00,000.00,030.2,028.5,000.0,038.7,031.6,15.1,0000.0,0015.37,0004.33,0003.47
2023-06-21 11:35:00,SystemResetWarning,0830.9,5.00,000.00,030.2,028.5,000.0,038.7,031.6,15.1,0000.0,0014.22,0004.29,0003.46
2023-06-21 11:36:00,SystemResetWarning,0830.9,5.00,000.00,030.2,028.5,000.0,038.7,031.6,15.1,0000.0,0013.18,0004.32,0003.46
2023-06-21 11:37:00,SystemResetWarning,0830.9,5.00,000.00,030.2,028.5,000.0,038.7,031.6,15.0,0000.0,0013.38,0004.32,0003.46
2023-06-21 11:38:00,SystemResetWarning,0830.9,5.00,000.00,030.2,028.5,000.0,038.7,031.6,15.0,0000.0,0013.19,0004.28,0003.45
2023-06-21 11:39:00,SystemResetWarning,0830.9,5.00,000.00,030.2,028.5,000.0,038.8,031.6,15.1,0000.0,0011.62,0004.27,0003.45
2023-06-21 11:40:00,SystemResetWarning,0830.9,5.00,000.00,030.2,028.5,000.0,038.8,031.6,15.1,0000.0,0011.50,0004.26,0003.45
2023-06-21 11:41:00,SystemResetWarning,0830.9,5.00,000.00,030.2,028.5,000.0,038.8,031.6,15.1,0000.0,0010.66,0004.26,0003.46
2023-06-21 11:42:00,SystemResetWarning,0830.9,5.00,000.00,030.2,028.5,000.0,038.8,031.6,15.0,0000.0,0010.86,0004.25,0003.47
2023-06-21 11:43:00,SystemResetWarning,0830.9,5.01,000.00,030.2,028.5,000.0,038.8,031.7,15.0,0000.0,0010.13,0004.27,0003.47
2023-06-21 11:44:00,SystemResetWarning,0830.9,5.00,000.00,030.2,028.5,000.0,038.8,031.6,14.9,0000.0,0010.04,0004.27,0003.48
2023-06-21 11:45:00,SystemResetWarning,0830.9,5.00,000.00,030.2,028.5,000.0,038.8,031.6,15.0,0000.0,0010.02,0004.29,0003.48
2023-06-21 11:46:00,SystemResetWarning,0830.9,5.00,000.00,030.2,028.5,000.0,038.8,031.6,15.4,0000.0,0010.06,0004.28,0003.47
2023-06-21 11:47:00,SystemResetWarning,0830.9,5.00,000.00,030.2,028.5,000.0,038.8,031.7,15.5,0000.0,0010.13,0004.27,0003.46
2023-06-21 11:48:00,SystemResetWarning,0830.9,5.00,000.00,030.2,028.5,000.0,038.8,031.7,16.6,0000.0,0009.86,0004.28,0003.46
2023-06-21 11:49:00,SystemResetWarning,0831.0,5.00,000.00,030.3,028.6,000.0,038.8,031.7,17.5,0000.0,0009.99,0004.34,0003.47
2023-06-21 11:50:00,SystemResetWarning,0830.9,5.00,000.00,030.3,028.6,000.0,038.8,031.7,16.6,0000.0,0010.24,0004.38,0003.47
2023-06-21 11:51:00,SystemResetWarning,0830.9,5.00,000.00,030.3,028.6,000.0,038.8,031.7,17.1,0000.0,0010.44,0004.42,0003.46
2023-06-21 11:52:00,SystemResetWarning,0830.9,4.99,000.00,030.3,028.6,000.0,038.8,031.7,16.9,0000.0,0010.58,0004.44,0003.46
2023-06-21 11:53:00,SystemResetWarning,0830.9,5.00,000.00,030.3,028.6,000.0,038.8,031.7,15.6,0000.0,0010.27,0004.47,0003.45
2023-06-21 11:54:00,SystemResetWarning,0830.9,5.00,000.00,030.3,028.6,000.0,038.8,031.7,17.5,0000.0,0010.28,0004.43,0003.44
2023-06-21 11:55:00,SystemResetWarning,0831.0,4.99,000.00,030.3,028.6,000.0,038.8,031.7,17.3,0000.0,0010.44,0004.44,0003.42
2023-06-21 11:56:00,SystemResetWarning,0830.9,5.00,000.00,030.3,028.6,000.0,038.8,031.7,16.7,0000.0,0010.59,0004.42,0003.41
2023-06-21 11:57:00,SystemResetWarning,0831.0,5.00,000.00,030.3,028.6,000.0,038.9,031.7,16.5,0000.0,0010.69,0004.44,0003.42
2023-06-21 11:58:00,SystemResetWarning,0831.0,5.00,000.00,030.3,028.6,000.0,038.9,031.7,16.8,0000.0,0010.39,0004.42,0003.42
2023-06-21 11:59:00,SystemResetWarning,0831.0,5.01,000.00,030.3,028.6,000.0,038.9,031.7,16.5,0000.0,0010.27,0004.39,0003.41
